EHI
0 0 0 0 0 0 0 0 0 0 0 0 0 0 0 0 0 0 0 0 0 0 0 0 0 0 0 0 0 0 0 0 0 0 0 0 0 0 0 0 0 0 0 0
0 0 0 0 0 0 0 0 0 0 0 0 0 0 0 0 0 0 0 0 0 0 0 0 0 0 0 0 0 0 0 0 0 0 0 0 0 0 0 0 0 0 0 0
0 0 0 0 0 0 0 0 0 0 0 0 0 0 0 0 0 0 0 0 0 0 0 0 0 0 0 0 0 0 0 0 0 0 0 0 0 0 0 0 0 0 0 0
0 0 0 0 0 0 0 0 0 0 0 0 0 0 0 0 0 0 0 0 0 0 0 0 0 0 0 0 0 0 0 0 0 0 0 0 0 0 0 0 0 0 0 0
0 0 0 0 0 0 0 0 0 0 0 0 0 0 0 0 0 0 0 0 0 0 0 0 0 0 0 0 0 0 0 0 0 0 0 0 0 0 0 0 0 0 0 0
0 0 0 0 0 0 0 0 0 0 0 0 0 0 0 0 0 0 0 0 0 0 0 0 0 0 0 0 0 0 0 0 0 0 0 0 0 0 0 0 0 0 0 0
0 0 0 0 0 0 0 0 0 0 0 0 0 0 0 0 0 0 0 0 0 0 0 0 0 0 0 0 0 0 0 0 0 0 0 0 0 0 0 0 0 0 0 0
0 0 0 0 0 0 0 0 0 0 0 0 0 0 0 0 0 0 0 0 0 0 0 0 0 0 0 0 0 0 0 0 0 0 0 0 0 0 0 0 0 0 0 0
0 0 0 0 0 0 0 0 0 0 0 0 0 0 0 0 0 0 0 0 0 0 0 0 0 0 0 0 0 0 0 0 0 0 0 0 0 0 0 0 0 0 0 0
0 0 0 0 0 0 0 0 0 0 0 0 0 0 0 0 0 0 0 0 0 0 0 0 0 0 0 0 0 0 0 0 0 0 0 0 0 0 0 0 0 0 0 0
0 0 0 0 0 0 0 0 0 0 0 0 0 0 0 0 0 0 0 0 0 0 0 0 0 0 0 0 0 0 0 0 0 0 0 0 0 0 0 0 0 0 0 0
0 0 0 0 0 0 0 0 0 0 0 0 0 0 0 0 0 0 0 0 0 0 0 0 0 0 0 0 0 0 0 0 0 0 0 0 0 0 0 0 0 0 0 0
0 0 0 0 0 0 0 0 0 0 0 0 0 0 0 0 0 0 0 0 0 0 0 0 0 0 0 0 0 0 0 0 0 0 0 0 0 0 0 0 0 0 0 0
0 0 0 0 0 0 0 0 0 0 0 0 0 0 0 0 0 0 0 0 0 0 0 0 0 0 0 0 0 0 0 0 0 0 0 0 0 0 0 0 0 0 0 0
0 0 0 0 0 0 0 0 0 0 0 0 0 0 0 0 0 0 0 0 0 0 0 0 0 0 0 0 0 0 0 0 0 0 0 0 0 0 0 0 0 0 0 0
0 0 0 0 0 0 0 0 0 0 0 0 0 0 0 0 0 0 0 0 0 0 0 0 0 0 0 0 0 0 0 0 0 0 0 0 0 0 0 0 0 0 0 0
0 0 0 0 0 0 0 0 0 0 0 0 0 0 0 0 0 0 0 0 0 0 0 0 0 0 0 0 0 0 0 0 0 0 0 0 0 0 0 0 0 0 0 0
0 0 0 0 0 0 0 0 0 0 0 0 0 0 0 0 0 0 0 0 0 0 0 0 0 0 0 0 0 0 0 0 0 0 0 0 0 0 0 0 0 0 0 0
0 0 0 0 0 0 0 0 0 0 0 0 0 0 0 0 0 0 0 0 0 0 0 0 0 0 0 0 0 0 0 0 0 0 0 0 0 0 0 0 0 0 0 0
0 0 0 0 0 0 0 0 0 0 0 0 0 0 0 0 0 0 0 0 0 0 0 0 0 0 0 0 0 0 0 0 0 0 0 0 0 0 0 0 0 0 0 0
0 0 0 0 0 0 0 0 0 0 0 0 0 0 0 0 0 0 0 0 0 0 0 0 0 0 0 0 0 0 0 0 0 0 0 0 0 0 0 0 0 0 0 0
0 0 0 0 0 0 0 0 0 0 0 0 0 0 0 0 0 0 0 0 0 0 0 0 0 0 0 0 0 0 0 0 0 0 0 0 0 0 0 0 0 0 0 0
0 0 0 0 0 0 0 0 0 0 0 0 0 0 0 0 0 0 0 0 0 0 0 0 0 0 0 0 0 0 0 0 0 0 0 0 0 0 0 0 0 0 0 0
0 0 0 0 0 0 0 0 0 0 0 0 0 0 0 0 0 0 0 0 0 0 0 0 0 0 0 0 0 0 0 0 0 0 0 0 0 0 0 0 0 0 0 0
0 0 0 0 0 0 0 0 0 0 0 0 0 0 0 0 0 0 0 0 0 0 0 0 0 0 0 0 0 0 0 0 0 0 0 0 0 0 0 0 0 0 0 0
0 0 0 0 0 0 0 0 0 0 0 0 0 0 0 0 0 0 0 0 0 0 0 0 0 0 0 0 0 0 0 0 0 0 0 0 0 0 0 0 0 0 0 0
0 0 0 0 0 0 0 0 0 0 0 0 0 0 0 0 0 0 0 0 0 0 0 0 0 0 0 0 0 0 0 0 0 0 0 0 0 0 0 0 0 0 0 0
Wind_Speed
3 2 4 4 5 7 7 7 8 8 7 12 8 8 8 7 6 6 6 6 6 5 5 4 4 4 3 3 2 1 1 2 3 4 4 4 5 5 5 6 6 6 6 7
2 2 3 3 5 7 7 5 7 6 10 10 6 4 5 6 7 7 8 7 6 6 5 5 4 4 3 3 2 1 1 2 3 3 4 5 5 5 5 6 6 5 6 6
1 3 2 5 6 7 6 7 8 8 9 5 3 5 7 8 8 9 9 7 7 6 5 5 5 4 4 3 2 1 2 2 3 3 4 4 5 5 5 5 5 5 6 6
1 1 3 7 2 5 5 6 8 8 8 6 7 5 5 6 8 9 8 7 7 6 5 4 3 3 2 2 2 2 2 2 3 3 4 4 4 5 5 4 4 4 5 5
3 1 6 7 2 5 3 5 5 7 8 4 1 2 6 7 9 10 9 8 7 6 5 3 4 3 2 2 2 2 3 3 3 3 3 4 4 5 4 3 4 4 4 4
4 2 4 5 2 2 2 4 4 4 4 2 4 1 6 5 6 8 7 6 6 5 4 4 4 3 3 3 3 4 5 4 3 3 3 4 4 3 3 3 4 4 4 4
4 3 8 8 2 2 2 6 4 2 3 6 7 8 5 3 3 6 6 6 6 5 5 5 4 5 5 4 6 6 4 3 3 3 3 4 3 2 3 3 4 4 4 4
5 3 7 3 4 5 6 4 2 2 2 6 8 7 5 4 4 5 6 6 6 6 6 5 5 6 6 7 7 4 4 4 4 4 3 2 2 3 2 3 3 4 4 5
8 7 4 2 3 3 3 3 3 3 3 3 5 6 5 5 6 6 7 6 6 6 6 5 5 7 7 7 5 4 4 5 5 4 3 3 2 3 2 2 2 3 3 3
3 3 1 3 4 6 5 4 4 4 4 2 4 5 5 5 5 6 6 6 5 6 6 7 6 7 9 7 5 5 6 6 5 4 4 3 2 2 2 2 2 2 2 3
3 2 2 4 8 9 8 5 6 5 5 4 4 5 4 5 5 6 6 5 5 7 8 9 7 7 8 7 6 6 6 6 5 5 4 4 3 3 4 4 4 3 2 2
5 2 1 1 6 9 8 9 9 8 9 8 6 6 5 5 5 4 5 4 5 7 9 9 7 8 8 7 7 7 6 6 5 4 4 4 3 3 6 7 7 8 7 5
3 1 1 1 5 8 6 7 7 8 8 8 8 7 6 5 5 4 4 5 7 9 9 9 8 8 9 7 8 8 8 7 5 4 4 4 4 4 4 4 5 7 8 8
1 2 4 4 4 7 7 7 6 8 9 9 8 8 8 7 7 7 7 7 7 7 8 8 8 10 10 7 8 9 9 9 7 5 5 5 5 5 4 4 3 3 4 7
5 5 5 4 4 6 6 6 9 11 11 11 10 11 11 11 10 9 9 9 7 6 6 6 8 11 9 6 8 10 8 7 6 6 5 5 5 4 4 5 4 4 3 3
6 7 6 6 6 6 8 10 10 10 10 10 11 11 10 9 8 9 10 10 9 8 8 7 8 10 8 6 8 8 8 13 10 6 5 5 5 5 5 5 5 5 5 4
7 5 4 5 6 6 7 7 6 6 8 9 10 10 10 10 11 13 13 12 9 8 8 9 11 11 9 7 7 7 7 8 12 7 6 7 6 6 6 6 6 6 6 6
7 6 6 6 5 5 5 6 6 7 7 7 8 9 11 12 12 13 13 12 11 10 11 13 14 14 11 8 6 6 6 6 7 8 7 7 7 7 6 6 7 7 6 5
8 7 7 6 5 5 4 5 5 5 6 7 8 8 8 9 9 10 10 11 13 15 16 16 22 15 13 12 11 6 6 7 7 7 7 9 8 7 7 7 7 7 6 5
7 7 7 6 5 5 4 4 4 5 5 6 6 7 8 9 10 10 9 7 8 9 13 16 15 13 14 14 15 7 6 7 8 8 7 7 8 8 8 8 8 8 7 7
7 7 6 5 4 4 4 3 3 4 4 5 5 6 6 7 8 8 8 8 9 12 14 18 13 12 13 16 16 8 7 7 7 7 7 8 8 9 8 9 8 8 8 7
6 5 5 4 3 2 1 1 2 2 3 4 5 5 5 6 7 6 5 5 9 16 11 9 10 17 22 20 11 10 9 8 7 6 6 7 8 8 9 9 9 9 8 8
5 4 4 3 2 1 1 1 1 1 2 3 3 4 4 4 4 4 6 6 7 15 11 8 17 25 25 14 11 11 11 10 9 7 7 7 7 8 8 9 9 9 9 9
4 4 3 2 2 1 2 3 2 2 3 3 4 4 3 3 4 3 4 10 14 15 8 12 21 24 20 10 10 11 11 11 10 9 8 7 6 7 7 8 8 8 9 10
4 3 3 3 3 4 4 3 3 3 3 3 5 5 4 3 4 5 5 6 12 12 7 12 19 20 12 8 9 10 10 11 12 11 9 9 8 7 7 7 8 8 8 9
4 4 4 4 4 4 3 2 3 3 3 3 4 4 4 4 5 5 5 6 8 11 8 6 8 10 7 8 9 9 9 11 11 10 11 10 10 9 8 8 9 8 8 9
3 3 2 2 3 3 3 3 4 4 4 4 5 5 4 4 4 5 6 6 6 6 6 6 6 6 7 7 8 8 8 8 9 9 10 10 10 10 10 11 9 8 7 8
Wind_Direction
219 212 172 203 196 176 186 195 206 242 249 265 261 242 238 229 228 240 256 260 260 260 268 276 278 271 257 259 272 279 313 325 324 326 330 335 338 339 341 346 348 342 345 345
6 357 197 245 235 202 215 215 233 262 274 259 262 248 240 228 221 233 244 249 254 257 260 263 263 261 254 251 251 228 265 295 312 328 336 337 335 338 342 343 342 346 349 345
318 335 43 280 242 195 213 213 200 226 247 267 261 245 237 226 218 226 235 240 242 245 246 251 251 245 242 243 230 214 254 288 308 321 328 329 334 341 340 337 340 342 345 346
93 53 256 246 243 185 212 245 217 235 254 249 243 258 254 224 214 226 232 232 235 235 240 245 241 234 228 214 207 221 252 279 295 308 314 322 334 338 331 327 335 333 336 341
106 148 289 298 243 174 190 285 224 228 260 267 263 339 296 231 208 218 221 219 222 220 219 229 231 219 190 203 214 233 251 264 274 285 303 317 326 327 325 329 333 329 327 340
120 155 241 252 283 171 118 302 276 218 259 196 121 26 277 269 214 217 218 214 215 210 206 222 225 189 184 211 224 240 243 249 262 270 282 296 306 312 316 321 320 326 333 341
148 214 263 251 245 117 107 258 274 229 232 172 193 214 240 294 232 213 211 211 205 198 208 221 203 178 201 218 232 237 235 243 257 263 268 274 293 306 317 326 331 338 336 335
146 183 259 254 150 177 220 252 275 264 225 205 232 257 263 271 250 225 215 210 196 199 221 223 193 187 212 231 236 229 224 238 253 261 265 272 280 303 322 333 335 339 342 338
182 204 241 314 227 292 289 275 287 291 282 244 251 260 254 251 247 236 224 216 202 203 223 228 205 197 217 235 224 213 220 238 249 260 259 256 256 281 306 322 326 326 337 333
232 263 305 9 350 334 310 278 296 304 310 292 265 277 272 260 250 241 232 221 207 203 222 235 221 213 224 232 209 205 223 237 242 250 261 256 241 234 241 267 286 304 316 319
235 290 360 21 7 343 341 3 10 6 10 358 327 308 289 273 262 248 240 227 208 210 224 236 229 225 229 221 202 211 227 236 240 238 244 251 245 231 225 228 213 223 243 250
198 186 178 343 343 344 5 18 16 21 21 14 5 336 323 297 283 269 256 240 228 228 233 242 236 236 234 212 198 206 224 233 231 231 234 235 246 268 242 233 243 236 228 220
215 239 190 5 357 354 6 15 22 31 25 13 5 356 349 331 321 311 290 265 245 241 241 243 241 244 242 212 198 207 219 225 220 220 224 226 225 234 265 273 250 247 243 238
25 133 96 42 6 359 12 17 31 37 28 21 10 6 4 357 350 346 325 299 278 264 257 251 247 251 249 215 204 215 221 227 220 216 215 216 218 220 223 237 265 273 254 244
58 82 100 86 48 31 27 34 43 33 21 18 14 13 9 4 355 344 335 332 322 302 284 272 261 263 259 221 213 220 220 222 219 214 211 211 212 214 217 223 231 245 261 266
103 84 85 79 62 45 41 41 41 27 17 14 13 9 2 356 351 351 353 353 349 336 325 316 293 286 284 247 227 227 227 228 214 209 209 209 208 210 215 219 225 231 236 234
128 114 96 80 65 52 44 39 35 22 16 15 7 359 0 4 7 5 360 355 350 345 348 343 325 318 310 279 245 238 232 231 221 211 209 209 208 211 214 214 219 227 234 222
119 122 124 115 99 76 51 37 30 24 18 7 4 8 12 11 5 356 351 351 358 3 1 348 339 333 324 310 279 254 240 231 218 216 214 212 211 211 209 213 219 227 236 230
116 113 106 98 94 85 64 40 25 19 13 10 12 11 8 3 355 349 348 357 5 360 350 342 341 342 334 326 315 277 254 242 232 226 219 217 214 211 210 213 218 222 223 217
114 111 106 96 86 81 68 42 29 25 14 9 12 11 8 360 354 351 351 358 0 342 333 341 344 342 338 332 326 299 271 254 244 237 226 219 217 216 215 215 217 219 218 215
124 118 110 103 93 79 68 49 37 25 8 9 15 7 354 346 348 350 353 353 344 339 341 347 347 342 341 340 333 321 297 274 258 247 237 230 226 223 219 216 217 217 218 216
139 134 128 123 113 89 46 35 30 17 9 5 2 356 351 346 343 343 339 327 325 341 347 342 342 348 350 348 342 338 328 309 287 269 255 245 236 231 227 221 219 218 216 214
152 156 157 160 158 181 313 320 332 336 337 331 329 330 327 316 315 329 331 326 326 344 348 337 346 353 356 353 347 345 342 336 324 305 284 266 253 246 241 232 225 220 215 213
166 177 185 180 164 193 263 269 273 272 273 278 278 281 286 300 302 285 280 317 334 341 340 338 350 356 358 352 347 347 345 342 337 330 318 300 281 266 255 247 239 229 222 217
178 185 190 189 205 224 233 249 271 269 271 275 279 275 261 244 257 282 295 302 320 333 328 334 344 349 351 341 344 344 342 341 341 339 334 327 314 298 281 264 252 245 234 225
184 198 209 212 217 224 223 222 238 255 257 271 280 275 270 264 264 274 284 292 301 318 320 313 318 330 331 333 335 336 336 336 338 337 337 334 328 319 307 294 275 260 248 238
196 204 216 241 242 222 215 219 233 250 246 245 266 275 278 279 279 281 285 288 294 299 299 302 305 308 313 318 322 325 327 329 331 333 334 334 332 326 319 307 296 283 266 251